Hurricane Symbol View the latest observations near Atlantic Potential Tropical Cyclone One.

Station PEGF1 - 8722956 - Port Everglades, FL Image indicating link to RSS feed of recent meteorological observations for station PEGF1


Conditions at PEGF1 as of
(7:00 pm EDT)
2300 GMT on 06/17/2024:
     

Click on the graph icon in the table below to see a time series plot of the last five days of that observation.

5-day plot - Wind Direction Wind Direction (WDIR): E ( 80 deg true )
5-day plot - Wind Speed Wind Speed (WSPD): 15.9 kts
5-day plot - Wind Gust Wind Gust (GST): 22.0 kts
5-day plot - Atmospheric Pressure Atmospheric Pressure (PRES):29.95 in
5-day plot - Pressure Tendency Pressure Tendency (PTDY):+0.00 in ( Steady )
5-day plot - Air Temperature Air Temperature (ATMP): 83.5 °F
5-day plot - Wind Speed at 10 Meters Wind Speed at 10 meters (WSPD10M): 13.6 kts
5-day plot - Wind Speed at 20 Meters Wind Speed at 20 meters (WSPD20M): 13.6 kts
5-day plot -  Wind Speed, Wind Gust and Atmospheric Pressure Combined plot of Wind Speed, Gust, and Air Pressure
NOS Water Level Observation Network Water Level
Previous observations
TIME
(EDT)
5-day plot - Wind Direction
WDIR
 
5-day plot - Wind Speed
WSPD
kts
5-day plot - Wind Gust
GST
kts
5-day plot - Wave Height
WVHT
ft
5-day plot - Dominant Wave Period
DPD
sec
5-day plot - Average Wave Period
APD
sec
5-day plot - Mean Wave Direction
MWD
 
5-day plot - Atmospheric Pressure
PRES
in
5-day plot - Pressure Tendency
PTDY
in
5-day plot - Air Temperature
ATMP
°F
5-day plot - Water Temperature
WTMP
°F
5-day plot - Dew Point
DEWP
°F
5-day plot - Salinity
SAL
psu
5-day plot - Visibility
VIS
nmi
5-day plot - Tide (above MLLW)
TIDE
ft
2024-06-17 06:54 pm E 20.0 22.9----29.95- 83.5-----
2024-06-17 06:48 pm E 15.0 21.0----29.95- 83.3-----
2024-06-17 06:42 pm E 19.0 22.9----29.95- 83.7-----
2024-06-17 06:36 pm E 20.0 22.9----29.95- 83.7-----
2024-06-17 06:30 pm E 19.0 22.0----29.95- 84.0-----
2024-06-17 06:24 pm E 20.0 22.9----29.94- 84.0-----
2024-06-17 06:18 pm E 15.0 21.0----29.94-------
2024-06-17 06:12 pm E 15.9 21.0----29.95- 84.0-----
2024-06-17 06:06 pm E 18.1 21.0----29.95- 84.4-----
2024-06-17 06:00 pm-------29.95-0.02------
2024-06-17 05:54 pm-------29.95-------
2024-06-17 05:48 pm E 18.1 24.1----29.95-------
2024-06-17 05:42 pm E 19.0 24.1----29.95-------
2024-06-17 05:36 pm E 20.0 24.1----29.95-------
2024-06-17 05:30 pm E 20.0 22.0----29.95- 84.4-----
2024-06-17 05:24 pm E 17.1 22.0----29.95- 84.7-----
2024-06-17 05:18 pm E 15.9 22.9------------
2024-06-17 05:12 pm E 18.1 21.0------ 84.7-----
2024-06-17 05:06 pm E 17.1 22.0------ 84.7-----
2024-06-17 05:00 pm E 19.0 22.0----29.95-0.03 84.6-----
2024-06-17 04:54 pm E 17.1 22.0----29.95- 84.7-----
2024-06-17 04:48 pm E 20.0 24.1----29.95- 85.3-----
2024-06-17 04:42 pm E 19.0 22.0----29.95- 84.7-----
2024-06-17 04:36 pm E 18.1 24.1----29.95- 84.9-----
2024-06-17 04:30 pm E 18.1 22.9----29.95- 84.7-----
2024-06-17 04:24 pm E 19.0 24.1----29.95- 84.7-----
2024-06-17 04:18 pm E 21.0 25.1----29.96- 84.6-----
2024-06-17 04:12 pm E 20.0 24.1----29.96- 84.7-----
2024-06-17 04:06 pm E 21.0 24.1----29.96- 85.3-----
2024-06-17 04:00 pm E 22.0 25.1----29.96-0.04 84.9-----
2024-06-17 03:54 pm E 21.0 25.1----29.96- 85.1-----
2024-06-17 03:48 pm E 20.0 22.9----29.96- 84.7-----
2024-06-17 03:42 pm E 22.0 24.1----29.96- 84.9-----
2024-06-17 03:36 pm E 19.0 22.9----29.96- 85.3-----
2024-06-17 03:30 pmENE 20.0 22.9----29.96- 85.3-----
2024-06-17 03:24 pm E 18.1 22.9----29.97- 84.7-----
2024-06-17 03:18 pmENE 20.0 24.1----29.96- 84.6-----
2024-06-17 03:12 pm E 20.0 26.0----29.96- 85.3-----
2024-06-17 03:06 pm E 19.0 25.1----29.96- 85.1-----
2024-06-17 03:00 pm E 18.1 22.0----29.96-0.04 84.9-----
2024-06-17 02:54 pmENE 22.0 24.1----29.97- 84.9-----
2024-06-17 02:48 pmENE 21.0 24.1----29.97- 84.9-----
2024-06-17 02:42 pm E 21.0 24.1----29.97- 84.6-----
2024-06-17 02:36 pm E 21.0 25.1----29.97- 84.6-----
2024-06-17 02:30 pm E 21.0 24.1----29.97- 84.4-----
2024-06-17 02:24 pm E 14.0 24.1----29.97- 84.7-----
2024-06-17 02:18 pm E 18.1 25.1----29.97- 84.7-----
2024-06-17 02:12 pm E 18.1 22.9----29.98- 84.9-----
2024-06-17 02:06 pm E 19.0 24.1----29.98- 84.7-----
2024-06-17 02:00 pm E 20.0 25.1----29.98-0.03 84.7-----
2024-06-17 01:54 pmENE 19.0 24.1----29.98- 84.9-----
2024-06-17 01:48 pm E 21.0 25.1----29.98- 84.7-----
2024-06-17 01:42 pm E 19.0 25.1----29.98- 84.6-----
2024-06-17 01:36 pm E 15.9 27.0----29.98- 85.1-----
2024-06-17 01:30 pmENE 22.9 26.0----29.99- 84.7-----
2024-06-17 01:24 pm E 19.0 26.0----29.99- 84.6-----
2024-06-17 01:18 pmENE 24.1 27.0----29.99- 84.6-----
2024-06-17 01:12 pm E 22.9 28.0----29.99- 84.4-----
2024-06-17 01:06 pm E 22.0 26.0----29.99- 84.9-----
2024-06-17 01:00 pm E 21.0 26.0----29.99-0.01 85.1-----
2024-06-17 12:54 pmENE 22.9 28.0----30.00- 84.6-----
2024-06-17 12:48 pmENE 22.9 26.0----30.00- 84.6-----
2024-06-17 12:42 pm E 20.0 25.1----30.00- 84.2-----
2024-06-17 12:36 pmENE 21.0 27.0----30.00- 84.4-----
2024-06-17 12:30 pmENE 20.0 26.0----30.00- 84.2-----
2024-06-17 12:24 pmENE 22.0 25.1----30.01- 84.7-----
2024-06-17 12:18 pmENE 19.0 25.1----30.01- 84.6-----
2024-06-17 12:12 pmENE 20.0 25.1----30.00- 84.6-----
2024-06-17 12:06 pmENE 21.0 25.1----30.00- 84.7-----
2024-06-17 12:00 pmENE 19.0 25.1----30.01+0.00 84.7-----
2024-06-17 11:54 amENE 20.0 25.1----30.01- 84.7-----
2024-06-17 11:48 amENE 22.9 25.1----30.01-------
2024-06-17 11:42 amENE 21.0 26.0----30.01- 84.4-----
2024-06-17 11:36 amENE 24.1 26.0----30.01- 84.0-----
2024-06-17 11:30 amENE 18.1 24.1----30.01-------
2024-06-17 11:24 amENE 22.0 25.1----30.01-------
2024-06-17 11:18 amENE 22.0 24.1----30.01-------
2024-06-17 11:12 amENE 21.0 25.1----30.01- 84.6-----
2024-06-17 11:06 amENE 20.0 25.1----30.01- 84.6-----
2024-06-17 11:00 amENE 22.0 25.1----30.01+0.02 84.0-----
2024-06-17 10:54 amENE 22.0 27.0----30.01- 84.2-----
2024-06-17 10:48 am E 20.0 26.0----30.01- 84.0-----
2024-06-17 10:42 amENE 22.0 25.1----30.01- 84.0-----
2024-06-17 10:36 am E 22.0 26.0----30.01- 83.8-----
2024-06-17 10:30 amENE 20.0 25.1----30.01- 83.8-----
2024-06-17 10:24 am E 19.0 26.0----30.01- 83.8-----
2024-06-17 10:18 amENE 21.0 26.0----30.01-------
2024-06-17 10:12 amENE 19.0 25.1----30.01- 83.8-----
2024-06-17 10:06 amENE 18.1 22.9----30.01- 83.7-----
2024-06-17 10:00 amENE 20.0 22.9----30.01+0.02 83.7-----
2024-06-17 09:54 amENE 21.0 25.1----30.01- 83.5-----
2024-06-17 09:48 amENE 22.0 25.1----30.01- 83.5-----
2024-06-17 09:42 amENE 22.0 24.1----30.00- 83.8-----
2024-06-17 09:36 amENE 20.0 24.1----30.00- 83.5-----
2024-06-17 09:30 amENE 22.0 24.1----30.00- 83.3-----
2024-06-17 09:24 am E 21.0 24.1----30.00- 83.5-----
2024-06-17 09:18 amENE 20.0 22.0----30.01- 83.5-----
2024-06-17 09:12 am E 15.0 22.9----30.00- 83.5-----
2024-06-17 09:06 am E 18.1 24.1----30.00- 83.7-----
2024-06-17 09:00 amENE 19.0 22.9----30.00+0.03 83.3-----
2024-06-17 08:54 am E 19.0 22.0----30.00- 83.5-----
2024-06-17 08:48 am E 19.0 22.9----30.00- 83.3-----
2024-06-17 08:42 am E 19.0 22.9----30.00- 83.5-----
2024-06-17 08:36 am E 15.0 22.0----30.00- 83.3-----
2024-06-17 08:30 am E 18.1 22.0----30.00- 83.1-----
2024-06-17 08:24 am E 20.0 22.0----30.00- 83.1-----
2024-06-17 08:18 amENE 17.1 21.0----30.00- 83.1-----
2024-06-17 08:12 amENE 18.1 21.0----29.99- 82.9-----
2024-06-17 08:06 amENE 18.1 21.0----29.99- 82.9-----
2024-06-17 08:00 am E 15.0 20.0----29.99+0.03 83.1-----
2024-06-17 07:54 amENE 17.1 20.0----29.99- 83.5-----
2024-06-17 07:48 am E 17.1 21.0----29.98- 83.1-----
2024-06-17 07:42 am E 14.0 21.0----29.98- 83.1-----
2024-06-17 07:36 am E 15.0 20.0----29.98- 82.8-----
2024-06-17 07:30 am E 18.1 22.0----29.98- 82.6-----
2024-06-17 07:24 amENE 18.1 21.0----29.98- 82.4-----
2024-06-17 07:18 amENE 18.1 21.0----29.98-------
2024-06-17 07:12 am E 15.0 21.0----29.98- 82.8-----
2024-06-17 07:06 amENE 19.0 21.0----29.98- 82.8-----
2024-06-17 07:00 am E 17.1 19.0----29.98+0.03 82.6-----
2024-06-17 06:54 am E 11.1 15.0----29.98- 82.0-----
2024-06-17 06:48 am E 9.9 15.0----29.98- 81.7-----
2024-06-17 06:42 am E 14.0 18.1----29.98- 81.7-----
2024-06-17 06:36 am E 15.9 19.0----29.97- 81.7-----
2024-06-17 06:30 am E 19.0 21.0----29.97- 81.9-----
2024-06-17 06:24 amENE 19.0 21.0----29.97- 81.5-----
2024-06-17 06:18 amENE 21.0 24.1----29.97- 81.7-----
2024-06-17 06:12 am E 15.9 20.0----29.97- 82.6-----
2024-06-17 06:06 am E 15.9 17.1----29.97- 82.6-----
2024-06-17 06:00 amENE 13.0 17.1----29.97+0.00 82.6-----
2024-06-17 05:54 amENE 15.9 18.1----29.97- 82.6-----
2024-06-17 05:48 am E 14.0 17.1----29.96-------
2024-06-17 05:42 am E 15.9 18.1----29.97- 82.6-----
2024-06-17 05:36 am E 14.0 15.9----29.96- 82.4-----
2024-06-17 05:30 am E 15.0 15.9----29.96- 82.4-----
2024-06-17 05:24 am E 15.9 17.1----29.96- 82.6-----
2024-06-17 05:18 am E 13.0 15.9----29.96-------
2024-06-17 05:12 am E 14.0 15.9----29.96- 82.4-----
2024-06-17 05:06 am E 14.0 17.1----29.96- 82.6-----
2024-06-17 05:00 am E 12.0 15.9----29.96-0.02 82.6-----
2024-06-17 04:54 am E 13.0 15.9----29.96- 82.4-----
2024-06-17 04:48 am E 13.0 15.0----29.96- 82.6-----
2024-06-17 04:42 am E 13.0 15.9----29.96- 82.6-----
2024-06-17 04:36 am E 14.0 17.1----29.96- 82.6-----
2024-06-17 04:30 am E 15.0 17.1----29.96- 82.6-----
2024-06-17 04:24 amENE 13.0 15.9----29.96- 82.6-----
2024-06-17 04:18 am E 14.0 15.9----29.95-------
2024-06-17 04:12 am E 14.0 15.9----29.95- 82.4-----
2024-06-17 04:06 am E 13.0 17.1----29.95- 82.6-----
2024-06-17 04:00 am E 13.0 15.9----29.96-0.05 82.4-----
2024-06-17 03:54 amENE 12.0 15.0----29.96- 82.6-----
2024-06-17 03:48 am E 14.0 15.0----29.96- 82.6-----
2024-06-17 03:42 am E 12.0 14.0----29.96- 82.4-----
2024-06-17 03:36 am E 12.0 14.0----29.96- 82.6-----
2024-06-17 03:30 am E 14.0 15.9----29.96- 82.6-----
2024-06-17 03:24 amENE 14.0 15.9----29.96- 82.6-----
2024-06-17 03:18 am E 13.0 15.0----29.96- 82.6-----
2024-06-17 03:12 am E 12.0 15.0----29.96- 82.6-----
2024-06-17 03:06 am E 13.0 15.0----29.96- 82.6-----
2024-06-17 03:00 am E 13.0 15.9----29.96-0.04 82.6-----
2024-06-17 02:54 am E 11.1 13.0----29.96- 82.8-----
2024-06-17 02:48 am E 13.0 15.0----29.96- 82.8-----
2024-06-17 02:42 am E 13.0 14.0----29.97- 82.6-----
2024-06-17 02:36 am E 12.0 15.9----29.97- 82.8-----
2024-06-17 02:30 am E 14.0 17.1----29.97- 82.8-----
2024-06-17 02:24 amENE 14.0 17.1----29.97- 82.8-----
2024-06-17 02:18 am E 14.0 15.9----29.98- 82.8-----
2024-06-17 02:12 am E 12.0 13.0----29.98- 82.8-----
2024-06-17 02:06 am E 12.0 13.0----29.98- 82.8-----
2024-06-17 02:00 am E 11.1 13.0----29.98-0.03 82.8-----
2024-06-17 01:54 am E 11.1 14.0----29.98- 82.8-----
2024-06-17 01:48 am E 12.0 13.0----29.99-------
2024-06-17 01:42 am E 11.1 12.0----29.99- 82.9-----
2024-06-17 01:36 am E 12.0 13.0----29.99- 82.9-----
2024-06-17 01:30 am E 11.1 13.0----29.99- 82.8-----
2024-06-17 01:24 am E 8.9 12.0----29.99- 82.6-----
2024-06-17 01:18 am E 8.9 9.9------ 82.6-----
2024-06-17 01:12 am E 8.0 11.1------ 82.6-----
2024-06-17 01:06 am E 8.9 11.1------ 82.6-----
2024-06-17 01:00 am E 9.9 12.0----30.00+0.00------
2024-06-17 12:54 am E 8.9 11.1----30.01-------
2024-06-17 12:48 am E 9.9 14.0----30.01-------
2024-06-17 12:42 am E 12.0 13.0----30.01-------
2024-06-17 12:36 am E 12.0 15.0----30.01-------
2024-06-17 12:30 am E 9.9 14.0----30.01-------
2024-06-17 12:24 am E 13.0 14.0----30.01-------
2024-06-17 12:18 am E 11.1 14.0----30.01- 82.9-----
2024-06-17 12:12 am E 12.0 14.0----30.01- 82.9-----
2024-06-17 12:06 am E 11.1 13.0----30.01- 82.8-----
2024-06-17 12:00 am-------30.01+0.00 82.9-----
2024-06-16 11:54 pm-------30.01- 83.1-----
2024-06-16 11:48 pm E 14.0 19.0----30.01-------
2024-06-16 11:42 pm E 9.9 14.0----30.01-------
2024-06-16 11:36 pm E 12.0 15.9----30.01-------
2024-06-16 11:30 pmENE 12.0 15.9----30.01- 83.3-----
2024-06-16 11:24 pmENE 14.0 17.1----30.01- 83.3-----
2024-06-16 11:18 pmENE 14.0 15.9----30.01- 83.3-----
2024-06-16 11:12 pmENE 13.0 15.9----30.01- 83.3-----
2024-06-16 11:06 pmENE 13.0 15.9----30.01- 83.1-----
2024-06-16 11:00 pmENE 14.0 17.1----30.01+0.01 83.3-----
2024-06-16 10:54 pmENE 14.0 17.1----30.01- 83.3-----
2024-06-16 10:48 pmENE 13.0 15.0----30.01- 83.3-----
2024-06-16 10:42 pmENE 12.0 17.1----30.01- 83.3-----
2024-06-16 10:36 pmENE 15.0 17.1----30.01- 83.3-----
2024-06-16 10:30 pmENE 13.0 17.1----30.01- 83.3-----
2024-06-16 10:24 pmENE 13.0 15.9----30.01- 83.3-----
2024-06-16 10:18 pmENE 14.0 17.1----30.01- 83.3-----
2024-06-16 10:12 pmENE 14.0 15.9----30.01- 83.5-----
2024-06-16 10:06 pmENE 13.0 15.0----30.01- 83.5-----
2024-06-16 10:00 pmENE 13.0 15.9----30.01+0.01 83.7-----
2024-06-16 09:54 pmENE 14.0 15.9----30.01- 83.8-----
2024-06-16 09:48 pmENE 8.9 12.0------------
2024-06-16 09:42 pmENE 11.1 13.0----30.01- 83.5-----
2024-06-16 09:36 pmENE 9.9 12.0----30.01- 83.5-----
2024-06-16 09:30 pmENE 8.9 12.0------ 83.7-----
2024-06-16 09:24 pmENE 9.9 12.0------ 83.7-----
2024-06-16 09:18 pmENE 11.1 12.0------------
2024-06-16 09:12 pmENE 9.9 11.1------ 83.7-----
2024-06-16 09:06 pmENE 9.9 12.0------ 83.7-----
2024-06-16 09:00 pmENE 11.1 12.0----30.01+0.01------
2024-06-16 08:54 pmENE 9.9 12.0----30.01-------
2024-06-16 08:48 pmENE 11.1 12.0----30.01-------
2024-06-16 08:42 pmENE 11.1 12.0----30.01-------
2024-06-16 08:36 pmENE 9.9 13.0----30.01-------
2024-06-16 08:30 pmENE 11.1 13.0----30.00-------
2024-06-16 08:24 pmENE 11.1 12.0----30.00-------
2024-06-16 08:18 pmENE 9.9 12.0----30.00- 83.8-----
2024-06-16 08:12 pm E 11.1 12.0----30.00- 83.8-----
2024-06-16 08:06 pmENE 9.9 12.0----30.00- 84.0-----
2024-06-16 08:00 pmENE 12.0 13.0----30.00+0.01 84.0-----
2024-06-16 07:54 pmENE 9.9 12.0----30.00- 84.2-----
2024-06-16 07:48 pm E 9.9 12.0----30.00-------
2024-06-16 07:42 pm E 9.9 12.0----30.00- 84.2-----
2024-06-16 07:36 pm E 8.9 12.0----30.00- 84.4-----
2024-06-16 07:30 pm E 8.0 12.0----30.00- 84.4-----
2024-06-16 07:24 pmENE 9.9 12.0----30.00- 84.4-----
2024-06-16 07:18 pm E 9.9 12.0----29.99- 84.6-----
2024-06-16 07:12 pmENE 9.9 11.1----29.99- 84.9-----
2024-06-16 07:06 pm E 8.9 11.1----29.99- 85.1-----
2024-06-16 07:00 pm E 8.9 11.1----29.99+0.00------
2024-06-16 06:54 pm E 8.9 12.0----29.99-------